Location: Brunembert
(50.7122°N, 1.8935°E)
Time: 09:54:00
(UTC+00:00)

Cosmos 2292 Rocket - Pass Details

Date: 22 April 2021
Orbit: 380 x 1448 km, 83.0° (Epoch: 05 May)

Event Time Altitude Azimuth Distance (km) Brightness Sun altitude
Rises 19:52:48 0° 350° (N) 4,072 8.4 -8.4°
Reaches altitude 10° 19:55:49 10° 351° (N) 2,948 7.6 -8.8°
Maximum altitude 20:02:34 83° 80° (E) 888 4.3 -9.7°
Drops below altitude 10° 20:07:32 10° 168° (SSE) 2,192 5.9 -10.4°
Enters shadow 20:08:33 - 169° (S) 2,586 6.3 -10.5°
